Dewpoint
61 62 62 62 61 61 62 62 62 62 62 62 61 61 61 61 62 62 62 62 61 61 61 61 61 60 60 60 60 60 60 60 59 59 59 60 60 61 61 61 61 62 62 62 61 61 61 61 61 61 60 60 60 60 60 60 60 60 59 59 58 58 58 58 58 58 58 59 59
59 60 61 61 61 61 61 61 61 61 62 62 62 62 62 61 61 62 62 62 61 61 60 60 60 60 60 59 59 60 60 60 59 59 59 60 60 60 61 61 61 61 62 62 62 62 62 62 62 61 61 61 60 60 60 61 61 60 60 60 60 59 59 59 59 59 59 59 59
58 59 60 61 61 61 61 61 61 61 61 61 62 62 62 62 61 61 61 62 61 61 60 60 60 60 60 60 60 60 60 60 60 59 59 60 60 60 60 60 61 61 61 61 62 62 62 62 62 62 62 62 61 61 61 60 60 60 60 60 60 60 60 60 60 60 60 60 60
57 58 58 59 60 60 60 60 60 60 60 60 61 61 61 61 61 61 61 61 61 61 60 60 60 60 60 60 60 60 60 59 60 60 60 59 59 59 60 60 60 60 60 61 61 62 62 62 62 62 62 62 62 62 61 60 60 60 60 60 60 61 61 60 60 60 60 60 60
56 57 57 58 58 59 60 60 60 60 60 60 60 60 60 60 60 60 60 60 60 60 60 60 60 60 60 60 60 60 60 59 59 59 60 60 60 60 60 60 60 60 60 61 61 61 61 62 62 62 62 62 62 61 61 61 60 60 60 60 60 60 60 60 60 60 60 60 60
55 56 57 57 58 58 59 60 60 60 60 60 60 60 60 60 60 60 59 59 60 60 60 60 59 59 59 60 59 59 59 59 59 59 59 60 60 60 61 61 61 61 61 61 61 61 61 62 61 61 61 61 61 61 61 61 60 60 60 60 60 60 60 60 60 60 60 59 59
53 55 56 56 57 57 58 58 59 59 60 60 59 59 60 60 60 59 59 60 60 60 60 59 59 59 59 59 59 59 59 59 59 59 59 59 60 60 60 60 60 60 60 61 61 61 61 61 60 60 60 60 60 60 60 60 60 59 59 59 59 60 60 59 59 59 59 59 59
52 53 54 55 55 56 56 57 57 58 58 58 58 58 59 59 59 60 60 60 60 60 60 60 60 60 59 59 59 59 59 59 59 59 59 59 59 59 60 60 60 60 60 60 60 60 60 60 60 60 60 59 59 59 59 60 59 59 59 59 59 59 59 60 60 59 59 59 59
50 51 52 53 53 54 54 55 55 56 56 56 57 57 57 58 58 59 59 59 59 59 59 59 60 60 60 59 59 59 59 59 59 59 59 59 59 59 59 59 59 60 60 60 60 60 60 60 60 60 60 59 59 59 59 59 59 59 59 59 59 59 59 60 60 59 59 59 59
49 49 50 51 52 52 53 53 53 53 54 54 55 55 56 56 56 57 58 58 58 59 59 59 59 59 59 59 59 59 59 59 59 59 59 59 59 59 59 59 59 59 60 60 60 60 60 60 59 59 59 60 59 59 59 59 59 59 59 59 59 59 59 60 60 59 59 59 59
47 48 49 49 50 51 51 51 52 52 52 53 53 54 54 54 54 55 56 57 58 58 58 58 58 58 58 59 59 59 59 59 59 59 59 59 59 59 59 59 59 59 59 59 59 59 59 59 59 58 58 59 59 59 59 59 59 59 59 59 59 59 59 59 59 60 60 59 59
46 47 47 48 49 49 50 50 50 50 50 51 52 52 53 53 53 53 54 55 56 57 58 58 58 58 58 58 58 58 58 59 59 59 59 59 59 59 59 59 59 59 59 58 58 58 58 58 58 58 58 58 58 58 58 58 58 58 58 58 58 58 58 58 59 59 59 59 59
45 45 46 46 47 48 49 49 49 49 49 49 50 50 51 51 51 52 52 53 53 54 55 56 58 58 58 58 58 58 58 58 58 58 58 58 58 58 58 58 58 58 58 58 58 58 58 57 57 57 57 57 57 58 58 58 58 58 58 58 58 58 58 58 58 58 58 58 58
43 43 44 44 45 46 47 47 47 48 48 48 48 49 49 49 50 50 51 51 52 53 53 54 55 56 57 58 58 58 58 58 58 58 58 58 58 58 58 57 57 57 57 57 57 57 58 58 57 57 57 57 57 57 57 58 58 58 58 57 57 57 57 57 57 57 57 57 57
40 41 41 42 43 43 44 44 44 44 45 45 46 46 47 48 48 49 49 49 50 51 51 52 53 54 55 55 56 57 58 58 58 58 58 58 58 57 57 57 57 57 57 57 57 57 57 58 57 57 57 57 57 57 57 58 58 58 58 57 57 57 57 57 57 57 57 56 56
37 38 38 39 40 40 40 40 41 41 42 43 43 44 44 45 46 47 47 48 49 49 49 50 51 52 52 53 53 54 55 56 57 57 57 57 57 57 57 57 57 57 57 57 57 57 57 58 58 57 57 57 57 57 57 57 58 58 58 57 57 57 57 57 57 57 56 56 56
35 35 36 36 37 37 38 38 39 40 40 41 41 42 43 44 44 45 45 45 46 47 47 48 49 50 50 50 51 51 52 53 53 54 55 55 56 57 57 57 57 57 57 57 57 57 57 58 58 58 57 57 57 57 57 57 57 57 57 57 57 57 57 57 57 57 57 56 56
34 34 34 35 35 36 37 37 38 38 39 40 40 41 42 43 43 44 44 44 45 45 46 46 47 48 49 49 49 50 50 50 50 50 51 52 53 53 55 56 57 57 57 57 58 58 58 58 58 58 58 58 58 58 57 57 57 57 57 57 57 57 57 57 57 57 57 57 56
33 33 34 34 35 35 36 37 37 38 38 39 39 40 41 41 42 43 44 44 44 45 45 45 46 46 47 48 48 49 49 49 49 49 49 49 50 50 51 53 54 55 57 57 57 57 58 58 58 58 58 58 58 58 58 58 58 57 57 57 57 57 57 57 57 57 57 57 56
33 33 33 34 34 35 35 35 36 37 37 38 39 39 40 40 42 43 44 44 44 44 45 45 45 45 46 47 47 47 48 48 48 48 48 48 49 49 49 49 51 53 54 56 57 57 57 57 58 58 58 58 58 58 58 57 57 57 57 57 57 57 57 57 57 57 57 57 57
33 33 33 33 34 34 35 35 35 36 36 37 37 38 39 40 41 42 42 42 42 43 44 44 44 44 45 45 46 46 46 47 47 47 47 48 48 48 48 48 49 50 52 54 55 56 57 57 57 57 57 57 57 57 57 57 57 57 57 57 57 57 57 57 57 57 57 57 57
33 33 33 33 34 34 34 34 35 35 35 36 36 37 38 39 40 40 41 41 41 42 43 43 43 44 44 44 44 45 45 45 46 46 46 46 46 47 47 48 48 49 51 53 54 55 55 55 55 56 57 57 57 57 57 57 57 57 57 57 57 57 57 57 57 57 57 57 57
33 33 33 33 33 34 34 34 34 34 35 35 35 36 37 37 38 39 40 40 40 41 42 42 43 43 44 44 44 44 44 44 45 45 45 45 45 46 46 46 47 48 49 51 52 52 51 51 52 53 54 55 56 57 57 57 57 57 57 57 57 57 57 57 57 57 57 57 57
32 33 33 33 33 33 33 33 33 34 34 35 35 35 35 36 37 37 38 38 40 40 41 42 42 43 43 43 43 43 43 43 44 44 44 45 45 45 45 46 46 47 48 49 49 49 49 49 49 49 50 52 53 54 56 57 57 57 57 57 57 57 57 57 57 57 57 57 57
32 32 32 32 33 33 33 33 33 33 33 34 34 35 35 35 35 35 36 36 38 39 40 41 42 42 43 42 42 42 43 43 43 44 44 44 44 44 44 45 44 45 46 47 47 47 47 48 48 48 49 49 50 51 52 54 56 56 56 56 56 56 56 56 57 57 57 57 57
31 32 32 32 32 32 32 32 32 33 33 33 34 34 34 34 34 34 35 35 36 37 39 40 41 41 42 41 42 42 42 42 43 43 43 43 43 43 43 43 43 44 45 45 45 46 46 47 48 48 48 49 49 49 49 51 53 54 56 56 56 56 56 56 56 56 56 56 56
31 31 31 31 31 31 32 32 32 32 32 32 33 33 33 33 33 33 34 34 35 35 37 38 39 40 40 41 41 42 42 42 42 43 43 43 43 42 42 43 43 43 44 44 45 45 46 47 47 47 48 48 48 48 49 49 50 52 54 55 56 56 56 56 56 56 56 56 56
31 31 31 31 31 31 31 31 31 31 31 32 32 32 32 32 32 33 33 33 34 35 36 37 37 39 40 40 40 41 41 41 42 42 42 42 42 41 41 42 42 42 43 44 44 45 45 46 46 47 47 47 48 48 48 49 49 51 52 53 55 55 55 55 55 55 55 55 55
30 30 30 30 30 31 31 31 31 31 31 31 31 31 31 32 32 32 32 33 33 35 35 37 37 38 38 39 39 40 40 40 41 41 42 42 41 41 41 42 42 42 43 44 44 44 44 45 45 46 46 46 47 47 48 48 48 49 50 52 53 54 54 55 55 55 55 55 55
29 29 30 30 30 30 30 30 30 31 31 31 31 31 31 31 31 31 32 32 33 34 35 36 36 37 37 37 38 38 39 40 40 40 40 40 40 40 40 41 41 42 42 43 44 44 44 44 44 45 45 46 46 46 47 47 47 48 49 50 51 52 53 53 54 54 54 54 54
28 28 28 28 28 29 29 29 29 30 30 30 30 30 31 31 31 31 31 32 33 34 35 35 35 35 35 36 36 37 37 38 39 39 38 38 39 39 40 40 40 41 42 43 43 43 43 44 44 44 44 45 45 45 46 46 46 47 48 48 49 50 51 52 53 53 53 53 53
26 26 26 27 27 27 27 28 28 28 28 28 29 29 30 30 30 31 31 32 33 33 34 34 34 34 34 35 35 35 35 36 36 37 37 38 38 38 39 39 40 40 41 42 42 42 43 43 43 43 44 44 44 45 45 45 45 46 47 47 48 49 49 50 51 52 52 53 53
26 26 26 26 26 26 26 27 27 27 27 27 28 28 29 29 29 29 30 31 32 33 33 33 33 33 33 33 34 34 34 35 35 36 36 36 37 37 37 38 39 40 40 41 41 42 42 42 43 43 43 43 44 44 44 44 45 45 46 46 47 48 49 49 50 51 51 52 52
27 27 27 27 27 27 27 27 27 27 27 27 27 28 28 27 28 28 29 31 32 32 32 32 32 32 33 33 33 33 33 34 35 35 35 35 35 36 36 36 38 39 40 40 40 41 41 42 42 42 43 43 44 44 44 44 44 45 45 46 46 47 47 48 49 49 50 51 51
27 27 27 27 27 27 27 27 27 27 27 27 27 27 27 27 27 28 29 31 31 31 31 31 31 32 32 32 32 32 33 33 34 34 34 35 35 35 35 35 36 37 39 39 40 40 40 41 41 42 42 43 43 43 44 44 44 44 45 45 46 46 47 47 48 49 49 50 50
26 26 26 27 27 27 27 27 27 27 27 27 27 27 27 28 28 28 29 31 31 30 29 29 30 31 31 32 31 32 33 33 33 33 34 34 35 35 35 35 35 36 38 39 39 40 40 40 41 41 42 42 43 43 43 44 44 44 44 45 45 46 46 47 47 48 48 49 49
25 25 26 26 26 26 26 27 27 27 27 27 27 27 27 28 28 29 29 31 30 29 29 29 29 29 30 31 31 32 32 33 32 33 34 34 34 34 34 35 35 35 37 38 39 39 40 40 40 41 41 42 42 43 43 43 44 44 44 45 45 46 46 46 47 47 48 48 48
24 24 24 24 25 25 26 26 26 26 26 26 26 26 27 27 28 28 29 30 29 29 29 29 28 29 29 30 31 31 31 32 32 33 33 33 34 34 34 34 35 35 36 37 38 39 39 40 40 40 41 41 42 42 43 43 43 44 44 44 45 45 45 46 47 47 47 47 46
23 24 24 24 24 24 24 24 24 25 25 25 25 26 26 26 27 28 29 30 29 28 29 29 28 29 30 30 30 30 31 31 31 32 32 32 33 33 34 34 35 35 36 37 38 38 39 40 40 40 40 41 41 42 42 42 43 43 43 44 44 44 45 45 46 46 46 46 45
23 24 24 24 24 24 24 24 24 24 24 25 25 25 26 26 27 28 29 29 29 29 29 29 29 29 30 31 30 30 30 30 30 31 31 32 32 33 33 33 34 34 35 36 37 38 39 39 40 40 40 40 41 42 42 42 42 42 43 43 44 44 45 45 45 45 45 44 44
22 23 24 24 24 24 24 23 24 24 24 24 25 26 26 27 28 28 28 28 28 29 29 29 29 29 29 30 30 30 29 29 30 30 31 32 32 32 32 32 32 33 35 35 37 37 38 39 40 40 40 40 41 41 42 42 41 41 42 42 43 44 44 44 44 44 44 44 44